[Date Prev][Date Next][Thread Prev][Thread Next] - [Date Index][Thread Index][Author Index]

2 Line ISS Keps 11-11



ISS (ZARYA)
1 25544U 98067A   03313.76724537 +.00019786 +00000-0 +21172-3 0 07547
2 25544 051.6317 006.2055 0006468 118.3929 025.1746 15.63849837283754
----
Via the sarex mailing list at AMSAT.ORG courtesy of AMSAT-NA.
To unsubscribe, send "unsubscribe sarex" to Majordomo@amsat.org



AMSAT Top AMSAT Home